| time (UTC) | temp F | wind direction | speed knots | gust knots | rain 1hr in | rain 24hr in | rain mn in | humidity % | barometer mb |
| 20260507080038 | 48 | 360 | 0.9 | 3.5 | 0.00 | 0.22 | 0.00 | 89 | 1008.3 |
| 20260507075521 | 48 | 0 | 0.9 | 3.5 | 0.00 | 0.22 | 0.00 | 89 | 1008.1 |
| 20260507075021 | 48 | 360 | 0.9 | 1.7 | 0.00 | 0.22 | 0.00 | 89 | 1007.9 |
| 20260507074542 | 48 | 360 | 0.9 | 5.2 | 0.00 | 0.22 | 0.00 | 89 | 1008.0 |
| 20260507074021 | 48 | 0 | 0.0 | 5.2 | 0.00 | 0.22 | 0.00 | 89 | 1007.9 |
| 20260507073523 | 49 | 360 | 0.9 | 5.2 | 0.00 | 0.22 | 0.00 | 88 | 1007.8 |
| 20260507073043 | 49 | 0 | 0.0 | 3.5 | 0.00 | 0.22 | 0.00 | 89 | 1007.6 |
| 20260507072522 | 49 | 360 | 0.0 | 3.5 | 0.00 | 0.22 | 0.00 | 79 | 1007.5 |
| 20260507072021 | 49 | 360 | 0.0 | 2.6 | 0.00 | 0.22 | 0.00 | 89 | 1007.6 |
| 20260507071539 | 49 | 0 | 0.0 | 2.6 | 0.00 | 0.22 | 0.00 | 89 | 1007.6 |
| 20260507071021 | 49 | 0 | 0.9 | 7.8 | 0.00 | 0.22 | 0.00 | 88 | 1007.8 |
| 20260507070521 | 49 | 360 | 0.9 | 7.8 | 0.00 | 0.22 | 0.00 | 89 | 1008.1 |
| 20260507070045 | 49 | 360 | 2.6 | 7.8 | 0.00 | 0.22 | 0.00 | 89 | 1007.8 |
| 20260507065521 | 49 | 360 | 0.9 | 3.5 | 0.00 | 0.22 | 0.00 | 82 | 1007.6 |
| 20260507065022 | 49 | 360 | 0.9 | 3.5 | 0.00 | 0.22 | 0.00 | 92 | 1007.7 |
| 20260507064545 | 49 | 0 | 0.9 | 2.6 | 0.00 | 0.22 | 0.00 | 93 | 1007.8 |
| 20260507064021 | 49 | 360 | 0.0 | 2.6 | 0.00 | 0.22 | 0.00 | 94 | 1007.4 |
| 20260507063522 | 49 | 0 | 0.0 | 2.6 | 0.00 | 0.22 | 0.00 | 95 | 1007.4 |
| 20260507063037 | 49 | 360 | 0.9 | 2.6 | 0.00 | 0.22 | 0.00 | 94 | 1007.3 |
| 20260507062521 | 49 | 360 | 0.0 | 2.6 | 0.00 | 0.22 | 0.00 | 95 | 1007.3 |
| 20260507062021 | 49 | 0 | 0.9 | 2.6 | 0.00 | 0.22 | 0.00 | 95 | 1007.2 |
| 20260507061532 | 49 | 360 | 0.0 | 1.7 | 0.00 | 0.22 | 0.00 | 96 | 1007.3 |
| 20260507061024 | 49 | 0 | 0.0 | 1.7 | 0.00 | 0.22 | 0.00 | 96 | 1007.3 |
| 20260507060521 | 49 | 0 | 0.0 | 0.9 | 0.00 | 0.22 | 0.00 | 97 | 1007.4 |
| 20260507060037 | 49 | 0 | 0.0 | 1.7 | 0.00 | 0.22 | 0.00 | 96 | 1007.4 |
| 20260507055519 | 49 | 0 | 0.0 | 1.7 | 0.00 | 0.22 | 0.00 | 97 | 1007.6 |
| 20260507055022 | 49 | 360 | 0.9 | 1.7 | 0.00 | 0.22 | 0.00 | 97 | 1007.9 |
| 20260507054538 | 49 | 360 | 0.0 | 0.9 | 0.00 | 0.22 | 0.00 | 96 | 1007.5 |
| 20260507054023 | 49 | 0 | 0.0 | 0.9 | 0.00 | 0.22 | 0.00 | 96 | 1007.6 |
| 20260507053521 | 49 | 0 | 0.0 | 1.7 | 0.00 | 0.22 | 0.00 | 96 | 1007.9 |
| 20260507053037 | 49 | 0 | 0.0 | 1.7 | 0.00 | 0.22 | 0.00 | 96 | 1008.0 |
| 20260507052521 | 49 | 0 | 0.9 | 1.7 | 0.00 | 0.22 | 0.00 | 96 | 1008.0 |
| 20260507052021 | 49 | 0 | 0.0 | 1.7 | 0.00 | 0.22 | 0.00 | 96 | 1008.0 |
| 20260507051537 | 49 | 0 | 0.0 | 1.7 | 0.00 | 0.22 | 0.00 | 95 | 1008.0 |
| 20260507051020 | 49 | 0 | 0.0 | 1.7 | 0.00 | 0.22 | 0.00 | 96 | 1008.1 |
| 20260507050521 | 49 | 0 | 0.0 | 1.7 | 0.00 | 0.22 | 0.00 | 95 | 1008.2 |
| 20260507050037 | 49 | 360 | 0.0 | 2.6 | 0.00 | 0.22 | 0.00 | 96 | 1008.4 |
| 20260507045522 | 49 | 0 | 0.0 | 2.6 | 0.00 | 0.22 | 0.00 | 95 | 1008.3 |
| 20260507045021 | 49 | 360 | 0.0 | 2.6 | 0.00 | 0.22 | 0.00 | 95 | 1008.2 |
| 20260507044548 | 49 | 360 | 0.0 | 2.6 | 0.00 | 0.22 | 0.00 | 95 | 1008.2 |
| 20260507044022 | 50 | 360 | 0.0 | 2.6 | 0.00 | 0.22 | 0.00 | 95 | 1008.3 |
| 20260507043521 | 50 | 360 | 0.9 | 3.5 | 0.00 | 0.22 | 0.00 | 94 | 1008.1 |
| 20260507043035 | 50 | 0 | 0.0 | 3.5 | 0.00 | 0.22 | 0.00 | 94 | 1008.1 |
| 20260507042521 | 50 | 360 | 0.9 | 3.5 | 0.00 | 0.22 | 0.00 | 94 | 1007.9 |
| 20260507042026 | 50 | 360 | 0.9 | 4.3 | 0.00 | 0.22 | 0.00 | 94 | 1007.8 |
| 20260507041535 | 50 | 360 | 0.9 | 4.3 | 0.00 | 0.22 | 0.00 | 94 | 1007.9 |
| 20260507041024 | 50 | 360 | 0.9 | 4.3 | 0.00 | 0.22 | 0.00 | 94 | 1007.7 |
| 20260507040523 | 50 | 0 | 0.9 | 3.5 | 0.00 | 0.22 | 0.00 | 94 | 1007.7 |
| 20260507040042 | 51 | 360 | 0.9 | 3.5 | 0.00 | 0.22 | 0.00 | 93 | 1007.8 |
| 20260507035522 | 51 | 360 | 0.9 | 3.5 | 0.00 | 0.22 | 0.22 | 93 | 1007.7 |
| 20260507035022 | 51 | 360 | 0.9 | 7.0 | 0.00 | 0.22 | 0.22 | 93 | 1008.0 |
| 20260507034542 | 51 | 360 | 1.7 | 7.0 | 0.00 | 0.22 | 0.22 | 93 | 1007.8 |
| 20260507034025 | 51 | 360 | 0.9 | 4.3 | 0.00 | 0.22 | 0.22 | 94 | 1008.1 |
| 20260507033521 | 51 | 360 | 1.7 | 4.3 | 0.00 | 0.22 | 0.22 | 94 | 1008.1 |
| 20260507033045 | 51 | 360 | 0.9 | 3.5 | 0.00 | 0.22 | 0.22 | 95 | 1008.0 |
| 20260507032521 | 51 | 360 | 0.0 | 3.5 | 0.00 | 0.22 | 0.22 | 94 | 1007.9 |
| 20260507032024 | 52 | 360 | 0.9 | 2.6 | 0.00 | 0.22 | 0.22 | 94 | 1007.9 |
| 20260507031553 | 52 | 0 | 0.0 | 3.5 | 0.00 | 0.22 | 0.22 | 94 | 1007.8 |
| 20260507031022 | 52 | 360 | 0.0 | 3.5 | 0.00 | 0.22 | 0.22 | 94 | 1007.7 |
| 20260507030522 | 52 | 360 | 0.0 | 5.2 | 0.00 | 0.22 | 0.22 | 93 | 1007.7 |
| 20260507030047 | 52 | 360 | 0.0 | 5.2 | 0.00 | 0.22 | 0.22 | 93 | 1007.7 |
| 20260507025520 | 52 | 360 | 1.7 | 5.2 | 0.00 | 0.22 | 0.22 | 92 | 1007.6 |
| 20260507025025 | 52 | 0 | 0.9 | 5.2 | 0.01 | 0.22 | 0.22 | 93 | 1007.7 |
| 20260507024559 | 52 | 360 | 1.7 | 5.2 | 0.01 | 0.22 | 0.22 | 93 | 1007.4 |
| 20260507024021 | 52 | 360 | 0.9 | 4.3 | 0.01 | 0.22 | 0.22 | 93 | 1007.4 |
| 20260507023521 | 52 | 360 | 0.9 | 7.0 | 0.01 | 0.22 | 0.22 | 93 | 1007.4 |
| 20260507023037 | 53 | 360 | 1.7 | 7.8 | 0.01 | 0.22 | 0.22 | 93 | 1007.4 |
| 20260507022521 | 53 | 360 | 3.5 | 7.8 | 0.01 | 0.22 | 0.22 | 93 | 1007.5 |
| 20260507022021 | 53 | 360 | 2.6 | 7.0 | 0.01 | 0.22 | 0.22 | 86 | 1007.7 |
| 20260507021540 | 53 | 360 | 0.0 | 2.6 | 0.01 | 0.22 | 0.22 | 97 | 1007.5 |
| 20260507021021 | 53 | 0 | 0.0 | 1.7 | 0.01 | 0.22 | 0.22 | 96 | 1007.4 |
| 20260507020521 | 53 | 360 | 0.0 | 2.6 | 0.01 | 0.22 | 0.22 | 96 | 1007.4 |
| 20260507020036 | 53 | 0 | 0.0 | 5.2 | 0.01 | 0.22 | 0.22 | 95 | 1007.3 |
| 20260507015521 | 54 | 360 | 1.7 | 5.2 | 0.01 | 0.22 | 0.22 | 94 | 1007.3 |
| 20260507015021 | 54 | 360 | 1.7 | 8.7 | 0.00 | 0.21 | 0.21 | 93 | 1007.1 |
| 20260507014547 | 54 | 360 | 3.5 | 8.7 | 0.00 | 0.21 | 0.21 | 93 | 1007.3 |
| 20260507014021 | 55 | 360 | 3.5 | 8.7 | 0.00 | 0.21 | 0.21 | 94 | 1007.2 |
| 20260507013518 | 55 | 360 | 2.6 | 7.0 | 0.00 | 0.21 | 0.21 | 94 | 1007.0 |
| 20260507013040 | 55 | 360 | 2.6 | 7.0 | 0.00 | 0.21 | 0.21 | 95 | 1006.7 |
| 20260507012523 | 55 | 360 | 0.9 | 7.8 | 0.00 | 0.21 | 0.21 | 94 | 1006.4 |
| 20260507012021 | 55 | 360 | 2.6 | 7.8 | 0.01 | 0.21 | 0.21 | 94 | 1006.3 |
| 20260507011544 | 56 | 360 | 0.9 | 4.3 | 0.02 | 0.21 | 0.21 | 96 | 1006.0 |
| 20260507011023 | 56 | 360 | 1.7 | 5.2 | 0.03 | 0.21 | 0.21 | 96 | 1006.1 |
| 20260507010521 | 56 | 360 | 0.9 | 7.0 | 0.06 | 0.21 | 0.21 | 96 | 1006.1 |
| 20260507010041 | 56 | 360 | 0.9 | 7.0 | 0.06 | 0.21 | 0.21 | 96 | 1006.0 |
| 20260507005523 | 57 | 360 | 1.7 | 4.3 | 0.07 | 0.21 | 0.21 | 97 | 1005.9 |
| 20260507005027 | 57 | 360 | 0.0 | 5.2 | 0.07 | 0.21 | 0.21 | 96 | 1005.8 |
| 20260507004536 | 57 | 360 | 1.7 | 5.2 | 0.07 | 0.21 | 0.21 | 97 | 1005.9 |
| 20260507004021 | 57 | 360 | 0.9 | 4.3 | 0.07 | 0.21 | 0.21 | 97 | 1005.8 |
| 20260507003520 | 57 | 360 | 0.9 | 3.5 | 0.07 | 0.21 | 0.21 | 99 | 1005.7 |
| 20260507003034 | 58 | 360 | 0.9 | 4.3 | 0.07 | 0.21 | 0.21 | 99 | 1005.6 |
| 20260507002521 | 58 | 360 | 1.7 | 5.2 | 0.06 | 0.20 | 0.20 | 99 | 1005.7 |
| 20260507002021 | 58 | 0 | 0.9 | 5.2 | 0.06 | 0.20 | 0.20 | 100 | 1005.6 |
| 20260507001538 | 58 | 360 | 1.7 | 4.3 | 0.05 | 0.19 | 0.19 | 100 | 1005.4 |
| 20260507001020 | 58 | 360 | 1.7 | 4.3 | 0.03 | 0.17 | 0.17 | 99 | 1005.3 |
| 20260507000520 | 58 | 360 | 0.0 | 5.2 | 0.01 | 0.15 | 0.15 | 99 | 1004.9 |
| 20260507000036 | 58 | 360 | 0.9 | 5.2 | 0.01 | 0.15 | 0.15 | 99 | 1004.8 |
| 20260506235522 | 58 | 360 | 0.9 | 8.7 | 0.00 | 0.16 | 0.14 | 99 | 1004.7 |
| 20260506235021 | 58 | 0 | 1.7 | 8.7 | 0.00 | 0.16 | 0.14 | 99 | 1004.6 |
| 20260506234545 | 58 | 360 | 0.9 | 5.2 | 0.00 | 0.16 | 0.14 | 99 | 1004.6 |
| 20260506234021 | 58 | 360 | 0.0 | 5.2 | 0.00 | 0.16 | 0.14 | 99 | 1004.6 |
| 20260506233522 | 58 | 360 | 1.7 | 5.2 | 0.00 | 0.16 | 0.14 | 99 | 1004.6 |
| 20260506233046 | 58 | 360 | 0.9 | 4.3 | 0.00 | 0.16 | 0.14 | 99 | 1004.6 |
| 20260506232521 | 58 | 0 | 0.0 | 4.3 | 0.00 | 0.16 | 0.14 | 99 | 1004.7 |
| 20260506232021 | 58 | 360 | 0.9 | 4.3 | 0.00 | 0.16 | 0.14 | 99 | 1004.6 |
| 20260506231536 | 58 | 360 | 0.9 | 3.5 | 0.00 | 0.16 | 0.14 | 99 | 1004.5 |
| 20260506231022 | 58 | 360 | 0.0 | 3.5 | 0.00 | 0.16 | 0.14 | 99 | 1004.5 |
| 20260506230521 | 58 | 360 | 0.0 | 4.3 | 0.00 | 0.16 | 0.14 | 99 | 1004.5 |
| 20260506230035 | 58 | 360 | 1.7 | 4.3 | 0.00 | 0.16 | 0.14 | 99 | 1004.4 |
| 20260506225521 | 58 | 360 | 0.9 | 7.0 | 0.00 | 0.16 | 0.14 | 99 | 1004.5 |
| 20260506225025 | 58 | 0 | 0.0 | 7.0 | 0.00 | 0.16 | 0.14 | 99 | 1004.5 |
| 20260506224540 | 58 | 360 | 1.7 | 5.2 | 0.00 | 0.16 | 0.14 | 99 | 1004.6 |
| 20260506224021 | 58 | 360 | 0.9 | 7.0 | 0.00 | 0.16 | 0.14 | 99 | 1004.5 |
| 20260506223522 | 58 | 360 | 0.9 | 7.0 | 0.00 | 0.16 | 0.14 | 99 | 1004.6 |
| 20260506223035 | 58 | 360 | 1.7 | 7.0 | 0.00 | 0.16 | 0.14 | 99 | 1004.5 |
| 20260506222522 | 58 | 0 | 0.9 | 4.3 | 0.00 | 0.16 | 0.14 | 99 | 1004.5 |
| 20260506222022 | 58 | 0 | 0.9 | 10.4 | 0.00 | 0.16 | 0.14 | 99 | 1004.5 |
| 20260506221538 | 58 | 360 | 2.6 | 10.4 | 0.00 | 0.16 | 0.14 | 99 | 1004.5 |
| 20260506221022 | 58 | 360 | 1.7 | 7.8 | 0.00 | 0.16 | 0.14 | 99 | 1004.6 |
| 20260506220521 | 58 | 360 | 0.9 | 7.0 | 0.00 | 0.16 | 0.14 | 99 | 1004.6 |
| 20260506220037 | 58 | 360 | 1.7 | 7.0 | 0.00 | 0.16 | 0.14 | 99 | 1004.5 |
| 20260506215521 | 58 | 360 | 0.9 | 5.2 | 0.00 | 0.16 | 0.14 | 99 | 1004.6 |
| 20260506215021 | 58 | 360 | 0.9 | 5.2 | 0.00 | 0.16 | 0.14 | 99 | 1004.5 |
| 20260506214537 | 58 | 360 | 0.0 | 5.2 | 0.00 | 0.16 | 0.14 | 99 | 1004.5 |
| 20260506214025 | 58 | 360 | 1.7 | 7.8 | 0.00 | 0.16 | 0.14 | 99 | 1004.5 |
| 20260506213522 | 58 | 360 | 1.7 | 7.8 | 0.00 | 0.16 | 0.14 | 99 | 1004.5 |
| 20260506213038 | 58 | 360 | 0.9 | 4.3 | 0.00 | 0.16 | 0.14 | 99 | 1004.5 |
| 20260506212521 | 58 | 360 | 0.9 | 7.0 | 0.00 | 0.16 | 0.14 | 98 | 1004.5 |
| 20260506212023 | 58 | 360 | 0.9 | 7.0 | 0.00 | 0.16 | 0.14 | 99 | 1004.6 |
| 20260506211532 | 58 | 360 | 2.6 | 7.8 | 0.00 | 0.16 | 0.14 | 98 | 1004.5 |
| 20260506211021 | 58 | 360 | 0.9 | 7.8 | 0.00 | 0.16 | 0.14 | 98 | 1004.5 |
| 20260506210521 | 58 | 360 | 1.7 | 7.8 | 0.00 | 0.16 | 0.14 | 98 | 1004.6 |
| 20260506210038 | 59 | 360 | 0.9 | 8.7 | 0.00 | 0.16 | 0.14 | 98 | 1004.5 |
| 20260506205521 | 59 | 360 | 0.9 | 8.7 | 0.00 | 0.16 | 0.14 | 98 | 1004.5 |
| 20260506205021 | 59 | 360 | 1.7 | 8.7 | 0.00 | 0.16 | 0.14 | 98 | 1004.6 |
| 20260506204540 | 59 | 360 | 2.6 | 7.8 | 0.00 | 0.16 | 0.14 | 98 | 1004.5 |
| 20260506204017 | 59 | 360 | 0.9 | 9.6 | 0.00 | 0.16 | 0.14 | 98 | 1004.5 |
| 20260506203517 | 59 | 360 | 3.5 | 9.6 | 0.00 | 0.16 | 0.14 | 98 | 1004.6 |
| 20260506203040 | 59 | 360 | 1.7 | 7.0 | 0.00 | 0.16 | 0.14 | 98 | 1004.7 |
| 20260506202521 | 59 | 360 | 0.9 | 7.8 | 0.01 | 0.16 | 0.14 | 98 | 1004.8 |
| 20260506202021 | 59 | 360 | 0.9 | 8.7 | 0.01 | 0.16 | 0.14 | 99 | 1004.9 |
| 20260506201539 | 59 | 360 | 1.7 | 8.7 | 0.02 | 0.16 | 0.14 | 98 | 1004.8 |
| 20260506201021 | 59 | 360 | 1.7 | 7.8 | 0.02 | 0.16 | 0.14 | 98 | 1005.0 |
| 20260506200521 | 59 | 360 | 0.9 | 4.3 | 0.02 | 0.16 | 0.14 | 99 | 1005.0 |
| 20260506200040 | 59 | 360 | 0.9 | 10.4 | 0.02 | 0.16 | 0.14 | 99 | 1005.1 |
| 20260506195525 | 59 | 360 | 2.6 | 10.4 | 0.02 | 0.16 | 0.14 | 98 | 1005.2 |
| 20260506195021 | 59 | 360 | 1.7 | 8.7 | 0.03 | 0.16 | 0.14 | 98 | 1005.3 |
| 20260506194536 | 59 | 360 | 1.7 | 11.3 | 0.03 | 0.16 | 0.14 | 98 | 1005.4 |
| 20260506194020 | 59 | 360 | 2.6 | 11.3 | 0.03 | 0.16 | 0.14 | 98 | 1005.4 |
| 20260506193520 | 59 | 360 | 2.6 | 9.6 | 0.03 | 0.16 | 0.14 | 98 | 1005.4 |
| 20260506193033 | 59 | 360 | 2.6 | 9.6 | 0.03 | 0.16 | 0.14 | 98 | 1005.4 |
| 20260506192521 | 60 | 360 | 0.0 | 9.6 | 0.03 | 0.15 | 0.13 | 98 | 1005.5 |
| 20260506192024 | 60 | 360 | 2.6 | 9.6 | 0.02 | 0.14 | 0.12 | 97 | 1005.6 |
| 20260506191539 | 60 | 360 | 0.9 | 7.0 | 0.02 | 0.14 | 0.12 | 98 | 1005.6 |
| 20260506191018 | 60 | 360 | 2.6 | 7.0 | 0.03 | 0.14 | 0.12 | 97 | 1005.4 |
| 20260506190521 | 60 | 360 | 1.7 | 7.0 | 0.03 | 0.14 | 0.12 | 97 | 1005.5 |
| 20260506190039 | 60 | 360 | 0.9 | 5.2 | 0.03 | 0.14 | 0.12 | 97 | 1005.4 |
| 20260506185518 | 60 | 0 | 1.7 | 7.0 | 0.03 | 0.14 | 0.12 | 97 | 1005.5 |
| 20260506185018 | 60 | 360 | 0.9 | 10.4 | 0.03 | 0.13 | 0.11 | 97 | 1005.6 |
| 20260506184545 | 60 | 360 | 3.5 | 10.4 | 0.03 | 0.13 | 0.11 | 96 | 1005.5 |
| 20260506184020 | 61 | 360 | 0.9 | 5.2 | 0.04 | 0.13 | 0.11 | 96 | 1005.6 |
| 20260506183520 | 61 | 360 | 0.9 | 7.0 | 0.05 | 0.13 | 0.11 | 97 | 1005.6 |
| 20260506183034 | 61 | 360 | 0.0 | 7.0 | 0.07 | 0.13 | 0.11 | 96 | 1005.8 |
| 20260506182518 | 61 | 360 | 0.0 | 5.2 | 0.07 | 0.12 | 0.10 | 96 | 1005.8 |
| 20260506182018 | 61 | 360 | 1.7 | 5.2 | 0.08 | 0.12 | 0.10 | 96 | 1005.8 |
| 20260506181538 | 61 | 360 | 0.9 | 3.5 | 0.09 | 0.12 | 0.10 | 96 | 1005.7 |
| 20260506181018 | 62 | 360 | 0.9 | 3.5 | 0.08 | 0.11 | 0.09 | 96 | 1005.6 |
| 20260506180518 | 62 | 360 | 0.0 | 1.7 | 0.08 | 0.11 | 0.09 | 97 | 1005.7 |
| 20260506180038 | 62 | 0 | 0.9 | 1.7 | 0.09 | 0.11 | 0.09 | 96 | 1005.8 |
| 20260506175517 | 62 | 0 | 0.0 | 1.7 | 0.09 | 0.11 | 0.09 | 96 | 1005.9 |
| 20260506175021 | 62 | 0 | 0.0 | 1.7 | 0.08 | 0.10 | 0.08 | 96 | 1006.0 |
| 20260506174537 | 62 | 0 | 0.0 | 1.7 | 0.08 | 0.10 | 0.08 | 95 | 1006.0 |
| 20260506174021 | 62 | 0 | 0.0 | 0.9 | 0.07 | 0.09 | 0.07 | 95 | 1006.1 |
| 20260506173521 | 62 | 0 | 0.0 | 0.9 | 0.06 | 0.08 | 0.06 | 95 | 1006.2 |
| 20260506173055 | 62 | 0 | 0.0 | 0.9 | 0.04 | 0.06 | 0.04 | 94 | 1006.5 |
| 20260506172518 | 62 | 360 | 0.0 | 1.7 | 0.03 | 0.05 | 0.03 | 94 | 1006.5 |
| 20260506172018 | 62 | 0 | 0.0 | 3.5 | 0.02 | 0.04 | 0.02 | 93 | 1006.6 |
| 20260506171537 | 62 | 0 | 0.0 | 3.5 | 0.01 | 0.03 | 0.01 | 92 | 1006.7 |
| 20260506171018 | 62 | 0 | 0.9 | 3.5 | 0.01 | 0.03 | 0.01 | 91 | 1006.8 |
| 20260506170518 | 62 | 360 | 0.0 | 1.7 | 0.00 | 0.02 | 0.00 | 90 | 1006.8 |
| 20260506170040 | 63 | 0 | 0.0 | 3.5 | 0.00 | 0.02 | 0.00 | 89 | 1006.8 |
| 20260506165518 | 63 | 0 | 0.0 | 7.8 | 0.00 | 0.02 | 0.00 | 89 | 1006.8 |
| 20260506165018 | 63 | 0 | 0.9 | 7.8 | 0.00 | 0.02 | 0.00 | 88 | 1006.8 |
| 20260506164535 | 63 | 360 | 1.7 | 7.8 | 0.00 | 0.02 | 0.00 | 87 | 1006.7 |
| 20260506164019 | 63 | 360 | 0.9 | 7.0 | 0.00 | 0.02 | 0.00 | 87 | 1006.8 |
| 20260506163521 | 63 | 360 | 1.7 | 9.6 | 0.00 | 0.02 | 0.00 | 86 | 1006.8 |
| 20260506163036 | 63 | 360 | 2.6 | 9.6 | 0.00 | 0.02 | 0.00 | 85 | 1006.9 |
| 20260506162521 | 63 | 360 | 0.9 | 7.8 | 0.00 | 0.02 | 0.00 | 86 | 1006.8 |
| 20260506162020 | 63 | 360 | 0.9 | 9.6 | 0.00 | 0.02 | 0.00 | 85 | 1006.8 |
| 20260506161535 | 64 | 360 | 2.6 | 10.4 | 0.00 | 0.02 | 0.00 | 85 | 1006.9 |
| 20260506161018 | 64 | 360 | 0.9 | 10.4 | 0.00 | 0.02 | 0.00 | 84 | 1007.0 |
| 20260506160518 | 64 | 360 | 2.6 | 10.4 | 0.00 | 0.02 | 0.00 | 75 | 1007.0 |
| 20260506160038 | 64 | 360 | 1.7 | 7.0 | 0.00 | 0.02 | 0.00 | 84 | 1007.0 |
| 20260506155518 | 64 | 0 | 0.0 | 8.7 | 0.00 | 0.02 | 0.00 | 84 | 1007.1 |
| 20260506155018 | 63 | 360 | 2.6 | 8.7 | 0.00 | 0.02 | 0.00 | 84 | 1007.3 |
| 20260506154537 | 63 | 360 | 0.9 | 5.2 | 0.00 | 0.02 | 0.00 | 85 | 1007.3 |
| 20260506154019 | 63 | 360 | 0.9 | 5.2 | 0.00 | 0.02 | 0.00 | 85 | 1007.4 |
| 20260506153517 | 63 | 0 | 0.9 | 9.6 | 0.00 | 0.02 | 0.00 | 85 | 1007.4 |
| 20260506153032 | 63 | 360 | 0.9 | 9.6 | 0.00 | 0.02 | 0.00 | 84 | 1007.5 |
| 20260506152518 | 63 | 360 | 2.6 | 9.6 | 0.00 | 0.02 | 0.00 | 85 | 1007.7 |
| 20260506152018 | 63 | 0 | 1.7 | 7.8 | 0.00 | 0.02 | 0.00 | 85 | 1007.8 |
| 20260506151532 | 63 | 360 | 1.7 | 7.8 | 0.00 | 0.02 | 0.00 | 85 | 1007.9 |
| 20260506151021 | 63 | 360 | 0.9 | 9.6 | 0.00 | 0.02 | 0.00 | 85 | 1007.9 |
| 20260506150518 | 62 | 360 | 0.9 | 9.6 | 0.00 | 0.02 | 0.00 | 85 | 1007.8 |
| 20260506150042 | 62 | 360 | 2.6 | 11.3 | 0.00 | 0.02 | 0.00 | 85 | 1007.7 |
| 20260506145518 | 62 | 360 | 3.5 | 11.3 | 0.00 | 0.02 | 0.00 | 85 | 1007.8 |
| 20260506145017 | 62 | 360 | 0.9 | 5.2 | 0.00 | 0.02 | 0.00 | 85 | 1007.9 |
| 20260506144539 | 62 | 360 | 0.9 | 8.7 | 0.00 | 0.02 | 0.00 | 86 | 1007.9 |
| 20260506144018 | 62 | 360 | 2.6 | 8.7 | 0.00 | 0.02 | 0.00 | 85 | 1007.9 |
| 20260506143519 | 62 | 360 | 0.9 | 7.0 | 0.00 | 0.02 | 0.00 | 85 | 1008.0 |
| 20260506143040 | 62 | 360 | 0.9 | 9.6 | 0.00 | 0.02 | 0.00 | 85 | 1008.1 |
| 20260506142520 | 62 | 360 | 2.6 | 9.6 | 0.00 | 0.02 | 0.00 | 85 | 1008.0 |
| 20260506142019 | 62 | 360 | 3.5 | 9.6 | 0.00 | 0.02 | 0.00 | 85 | 1007.7 |
| 20260506141534 | 62 | 0 | 2.6 | 10.4 | 0.00 | 0.02 | 0.00 | 86 | 1007.7 |
| 20260506141020 | 62 | 360 | 3.5 | 10.4 | 0.00 | 0.02 | 0.00 | 85 | 1007.9 |
| 20260506140518 | 62 | 360 | 2.6 | 11.3 | 0.00 | 0.02 | 0.00 | 86 | 1008.1 |
| 20260506140033 | 62 | 360 | 3.5 | 11.3 | 0.00 | 0.02 | 0.00 | 86 | 1007.9 |
| 20260506135517 | 62 | 360 | 1.7 | 8.7 | 0.00 | 0.02 | 0.00 | 86 | 1007.7 |
| 20260506135017 | 62 | 360 | 1.7 | 5.2 | 0.00 | 0.02 | 0.00 | 87 | 1007.7 |
| 20260506134535 | 61 | 360 | 1.7 | 5.2 | 0.00 | 0.02 | 0.00 | 87 | 1007.7 |
| 20260506134018 | 61 | 360 | 1.7 | 5.2 | 0.00 | 0.02 | 0.00 | 87 | 1007.7 |
| 20260506133520 | 61 | 360 | 1.7 | 7.0 | 0.00 | 0.02 | 0.00 | 88 | 1007.7 |
| 20260506133034 | 61 | 360 | 1.7 | 7.0 | 0.00 | 0.02 | 0.00 | 88 | 1007.7 |
| 20260506132524 | 61 | 360 | 1.7 | 7.0 | 0.00 | 0.02 | 0.00 | 88 | 1007.5 |
| 20260506132018 | 60 | 360 | 0.9 | 5.2 | 0.00 | 0.02 | 0.00 | 88 | 1007.6 |
| 20260506131545 | 60 | 360 | 1.7 | 5.2 | 0.00 | 0.02 | 0.00 | 88 | 1007.7 |
| 20260506131018 | 60 | 360 | 0.9 | 3.5 | 0.00 | 0.02 | 0.00 | 79 | 1007.8 |
| 20260506130517 | 60 | 360 | 0.0 | 2.6 | 0.00 | 0.02 | 0.00 | 89 | 1007.8 |
| 20260506130053 | 60 | 360 | 0.0 | 2.6 | 0.00 | 0.02 | 0.00 | 89 | 1008.1 |
| 20260506125521 | 59 | 360 | 0.9 | 2.6 | 0.00 | 0.02 | 0.00 | 90 | 1008.2 |
| 20260506125019 | 59 | 0 | 0.0 | 3.5 | 0.00 | 0.02 | 0.00 | 90 | 1008.1 |
| 20260506124535 | 59 | 360 | 0.9 | 3.5 | 0.00 | 0.02 | 0.00 | 90 | 1008.3 |
| 20260506124016 | 59 | 360 | 0.9 | 10.4 | 0.00 | 0.02 | 0.00 | 90 | 1008.5 |
| 20260506123516 | 59 | 0 | 1.7 | 10.4 | 0.00 | 0.02 | 0.00 | 90 | 1008.4 |
| 20260506123037 | 58 | 360 | 1.7 | 7.0 | 0.00 | 0.02 | 0.00 | 90 | 1008.5 |
| 20260506122516 | 58 | 360 | 2.6 | 7.0 | 0.00 | 0.02 | 0.00 | 90 | 1008.5 |
| 20260506122016 | 58 | 360 | 1.7 | 7.0 | 0.00 | 0.02 | 0.00 | 90 | 1008.5 |
| 20260506121534 | 58 | 360 | 0.9 | 7.0 | 0.00 | 0.02 | 0.00 | 90 | 1008.5 |
| 20260506121016 | 58 | 0 | 1.7 | 5.2 | 0.00 | 0.02 | 0.00 | 90 | 1008.7 |
| 20260506120517 | 58 | 360 | 1.7 | 8.7 | 0.00 | 0.02 | 0.00 | 91 | 1008.6 |
| 20260506120034 | 58 | 360 | 1.7 | 8.7 | 0.00 | 0.02 | 0.00 | 91 | 1008.5 |
| 20260506115519 | 58 | 360 | 1.7 | 7.8 | 0.00 | 0.02 | 0.00 | 91 | 1008.2 |
| 20260506115017 | 58 | 360 | 0.9 | 5.2 | 0.00 | 0.02 | 0.00 | 91 | 1008.4 |
| 20260506114535 | 58 | 360 | 0.0 | 4.3 | 0.00 | 0.02 | 0.00 | 91 | 1008.4 |
| 20260506114016 | 58 | 360 | 0.9 | 4.3 | 0.00 | 0.02 | 0.00 | 91 | 1008.5 |
| 20260506113516 | 58 | 360 | 0.0 | 2.6 | 0.00 | 0.02 | 0.00 | 91 | 1008.2 |
| 20260506113040 | 58 | 360 | 0.9 | 8.7 | 0.00 | 0.02 | 0.00 | 91 | 1008.5 |
| 20260506112516 | 58 | 360 | 1.7 | 8.7 | 0.00 | 0.02 | 0.00 | 91 | 1008.6 |
| 20260506112016 | 58 | 360 | 0.0 | 9.6 | 0.00 | 0.02 | 0.00 | 91 | 1008.5 |
| 20260506111532 | 58 | 0 | 0.0 | 9.6 | 0.00 | 0.02 | 0.00 | 91 | 1008.6 |
| 20260506111017 | 57 | 360 | 1.7 | 7.8 | 0.00 | 0.02 | 0.00 | 91 | 1008.5 |
| 20260506110517 | 57 | 0 | 1.7 | 7.8 | 0.00 | 0.02 | 0.00 | 91 | 1008.7 |
| 20260506110043 | 57 | 360 | 0.9 | 7.8 | 0.00 | 0.02 | 0.00 | 91 | 1008.7 |
| 20260506105516 | 57 | 360 | 1.7 | 7.8 | 0.00 | 0.02 | 0.00 | 91 | 1008.6 |
| 20260506105019 | 57 | 360 | 0.0 | 4.3 | 0.00 | 0.02 | 0.00 | 91 | 1008.6 |
| 20260506104538 | 57 | 0 | 1.7 | 4.3 | 0.00 | 0.02 | 0.00 | 91 | 1008.8 |
| 20260506104017 | 57 | 0 | 0.0 | 7.8 | 0.00 | 0.02 | 0.00 | 91 | 1008.6 |
| 20260506103521 | 57 | 360 | 0.9 | 7.8 | 0.00 | 0.02 | 0.00 | 92 | 1008.6 |
| 20260506103045 | 56 | 360 | 1.7 | 7.8 | 0.00 | 0.02 | 0.00 | 92 | 1008.7 |
| 20260506102521 | 56 | 360 | 1.7 | 5.2 | 0.00 | 0.02 | 0.00 | 92 | 1008.6 |
| 20260506102021 | 56 | 0 | 0.0 | 4.3 | 0.00 | 0.02 | 0.00 | 93 | 1008.4 |
| 20260506101548 | 56 | 360 | 0.0 | 3.5 | 0.00 | 0.02 | 0.00 | 93 | 1008.4 |
| 20260506101021 | 56 | 0 | 0.9 | 3.5 | 0.00 | 0.02 | 0.00 | 93 | 1008.4 |
| 20260506100521 | 56 | 360 | 0.0 | 2.6 | 0.00 | 0.02 | 0.00 | 93 | 1008.4 |
| 20260506100048 | 56 | 360 | 0.0 | 2.6 | 0.00 | 0.02 | 0.00 | 93 | 1008.4 |
| 20260506095521 | 56 | 0 | 0.0 | 4.3 | 0.00 | 0.02 | 0.00 | 93 | 1008.2 |
| 20260506095024 | 56 | 0 | 0.9 | 4.3 | 0.00 | 0.02 | 0.00 | 93 | 1008.3 |
| 20260506094536 | 56 | 0 | 0.0 | 2.6 | 0.00 | 0.02 | 0.00 | 93 | 1008.1 |
| 20260506094022 | 56 | 360 | 0.0 | 2.6 | 0.00 | 0.02 | 0.00 | 92 | 1008.1 |
| 20260506093517 | 56 | 360 | 0.0 | 2.6 | 0.00 | 0.02 | 0.00 | 92 | 1008.2 |
| 20260506093043 | 56 | 360 | 0.0 | 1.7 | 0.00 | 0.02 | 0.00 | 92 | 1008.2 |
| 20260506092519 | 56 | 0 | 0.0 | 1.7 | 0.00 | 0.02 | 0.00 | 92 | 1008.4 |
| 20260506092019 | 56 | 0 | 0.0 | 0.9 | 0.00 | 0.02 | 0.00 | 92 | 1008.3 |
| 20260506091539 | 56 | 0 | 0.0 | 3.5 | 0.00 | 0.02 | 0.00 | 91 | 1008.2 |
| 20260506091019 | 56 | 0 | 0.0 | 3.5 | 0.00 | 0.02 | 0.00 | 91 | 1008.3 |
| 20260506090518 | 56 | 0 | 0.0 | 3.5 | 0.00 | 0.02 | 0.00 | 91 | 1008.3 |
| 20260506090034 | 56 | 0 | 0.0 | 3.5 | 0.00 | 0.02 | 0.00 | 91 | 1008.3 |
| 20260506085518 | 56 | 360 | 0.0 | 2.6 | 0.00 | 0.02 | 0.00 | 92 | 1008.3 |
| 20260506085018 | 56 | 360 | 0.0 | 1.7 | 0.00 | 0.02 | 0.00 | 92 | 1008.2 |
| 20260506084549 | 56 | 0 | 0.0 | 1.7 | 0.00 | 0.02 | 0.00 | 92 | 1008.3 |
| 20260506084018 | 56 | 0 | 0.0 | 1.7 | 0.00 | 0.02 | 0.00 | 92 | 1008.5 |
| 20260506083518 | 56 | 360 | 0.0 | 2.6 | 0.00 | 0.02 | 0.00 | 92 | 1008.4 |
| 20260506083041 | 56 | 0 | 0.9 | 2.6 | 0.00 | 0.02 | 0.00 | 92 | 1008.5 |
| 20260506082521 | 56 | 0 | 0.0 | 1.7 | 0.00 | 0.02 | 0.00 | 92 | 1008.4 |
| 20260506082017 | 55 | 0 | 0.0 | 3.5 | 0.00 | 0.02 | 0.00 | 92 | 1008.4 |
| 20260506081545 | 55 | 0 | 0.0 | 3.5 | 0.00 | 0.02 | 0.00 | 92 | 1008.3 |
| 20260506081017 | 55 | 360 | 0.0 | 1.7 | 0.00 | 0.02 | 0.00 | 92 | 1008.3 |
| 20260506080520 | 55 | 0 | 0.0 | 0.9 | 0.00 | 0.02 | 0.00 | 91 | 1008.3 |